Location: Unspecified
(35.7250°N, 0.0000°E)
Time: 02:15:54
(UTC+00:00)

Tiros 1 - Pass Details

Date: 01 July 2019
Orbit: 630 x 664 km, 48.4° (Epoch: 17 August)

Event Time Altitude Azimuth Distance (km) Brightness Sun altitude
Rises 20:53:40 0° 273° (W) 2,971 11.3 -16.0°
Reaches altitude 10° 20:56:24 10° 287° (WNW) 2,056 10.7 -16.4°
Maximum altitude 21:00:16 24° 341° (NNW) 1,330 9.5 -16.9°
Drops below altitude 10° 21:04:07 10° 36° (NE) 2,041 9.8 -17.4°
Sets 21:06:50 0° 51° (NE) 2,945 10.5 -17.8°
